SOLRAD 11A/B AKM, 8753

Orbit data source: Space-Track

SOLRAD 11A/B AKM, 8753 is space debris originally from a launch on Mon, 15 Mar 1976 UTC launched from the Air Force Eastern Test Range (AFETR). Debris objects in space refer to the collection of defunct objects orbiting the Earth. Examples of debris include non-operational satellites, rocket bodies, and fragments generated from explosions, collisions, or faulty payload assembly.

Loading next visibility...
Identifier
8753, 1976-023H
Orbit
Active
Country
Flag of USUS
Related business
Manufacturer
Thiokol/TE
Mission
Spacecraft
Bus & Motor
STAR 13A, Unknown motor
Mass
10 kg wet, 10 kg dry
Launch date (UTC)
1976-03-15 (50 years ago)
Launch vehicle
Unknown
Launch site
Air Force Eastern Test Range (AFETR)
Object type
Payload
Rocket body
Debris
Shape & HBR
Unknown
Radar Cross Section
RCS unknown

Expand to show TLE details & history
Last TLE update: in 1 day

TLE from in 1 day
0 SOLRAD 11A/B AKM
1 08753U 76023H   25262.14975385 -.00001058  00000-0  00000-0 0  9995
2 08753  12.5152 340.9357 0300280  99.6218   3.3235  0.18712613  4908
Epoch: 2025-09-19T03:35Z
TLE epoch observation values (Epoch: 2025-09-19T03:35:38.732Z)
Latitude
12.12297°
Longitude
32.16588°
Altitude
118,979.731 km
Speed
1.809 km/s
True Right ascension
05h 37m 30s
True Declination
12° 07' 08"
Sunlit
Object was in daylight at epoch
Visualization orbit readout
Latitude
Unknown
Longitude
Unknown
Altitude
Unknown
Speed
Unknown
Apparent Right ascension
Unknown
Apparent Declination
Unknown
Sunlit
N/A
Visualization observer readout
Local Sidereal Time
09:26:02
Azimuth
Unknown
Elevation
Unknown
Doppler factor
Unknown
Orbital elements
Apogee altitude
126,615.006 km
Perigee altitude
118,860.812 km
Semi-major axis
129,116.046 km
Eccentricity
0.03003
Inclination
12.5152°
RAAN
340.9357°
Arg. of periapsis
99.6218°
True anomaly
3.53074°
Mean anomaly
3.3235°
Eccentric anomaly
3.42632°
Mean motion
0.04678 °/min
Orbital period
7,695.37 mins
BSTAR
0
Loading maneuver chart data...
Computing Atmospheric mass density...
Loading historical data...
Loading historical data...
Loading historical data...
Loading historical data...
Loading historical data...
Loading historical data...
Loading historical data...

Documentation

Showing up to 5 results
|